This is the latest recevied weather packets stored in our database for station/object PP5CFL-2. If no packets are shown the sender has not sent any weather packets the latest 10 day(s).
| Time | Temp. | Humidity | Pressure | Rain* | Wind** | Luminosity | Snow |
|---|---|---|---|---|---|---|---|
| 1788374816 | 23.33° C | 91% | 1017.4 hPa | - | - | - | - |
| 1788374516 | 23.33° C | 90% | 1017.4 hPa | - | - | - | - |
| 1788374216 | 23.33° C | 90% | 1017.4 hPa | - | - | - | - |
| 1788373916 | 23.33° C | 89% | 1017.4 hPa | - | - | - | - |
| 1788373616 | 23.33° C | 89% | 1017.4 hPa | - | - | - | - |
| 1788373316 | 23.33° C | 90% | 1017.3 hPa | - | - | - | - |
| 1788373021 | 23.33° C | 92% | 1017.3 hPa | - | - | - | - |
| 1788372716 | 23.33° C | 94% | 1017.3 hPa | - | - | - | - |
| 1788372442 | 23.33° C | 95% | 1017.3 hPa | - | - | - | - |
| 1788372116 | 23.33° C | 94% | 1017.4 hPa | - | - | - | - |
| 1788371816 | 23.33° C | 94% | 1017.5 hPa | - | - | - | - |
| 1788371516 | 23.33° C | 89% | 1017.7 hPa | - | - | - | - |
| 1788371216 | 23.33° C | 94% | 1017.8 hPa | - | - | - | - |
| 1788370916 | 22.78° C | 91% | 1017.9 hPa | - | - | - | - |
| 1788370616 | 23.33° C | 90% | 1018 hPa | - | - | - | - |
| 1788370316 | 23.33° C | 90% | 1017.9 hPa | - | - | - | - |
| 1788370016 | 23.33° C | 90% | 1017.9 hPa | - | - | - | - |
| 1788369716 | 23.33° C | 93% | 1018.1 hPa | - | - | - | - |
| 1788369416 | 22.78° C | 92% | 1018.2 hPa | - | - | - | - |
| 1788369116 | 22.78° C | 91% | 1018.4 hPa | - | - | - | - |
| 1788368816 | 23.33° C | 89% | 1018.3 hPa | - | - | - | - |
| 1788368516 | 23.33° C | 87% | 1018.3 hPa | - | - | - | - |
| 1788368216 | 23.89° C | 84% | 1018.4 hPa | - | - | - | - |
| 1788367916 | 23.89° C | 85% | 1018.5 hPa | - | - | - | - |
| 1788367616 | 23.89° C | 85% | 1018.5 hPa | - | - | - | - |
* Rain since midnight (hover to see other rain measurements)
** Current wind speed in m/s (hover to see current wind gust speed)